Flag for Germany Weather past 2 weeks in Freising, Bavaria, Germany

Now
51 °F

Overcast.


Feels Like: 51 °F
Forecast: 47 / 56 °F
Wind: 1 mph from Northeast

Location: Muenchen Flughafen

Current Time: May 25, 2015 at 6:17:18 AM

Latest Report: May 25, 2015 at 5:00 AM


Visibility: 5 mi

Pressure: 30.04 "Hg

Humidity: 98%

Dew point: 50 °F

Location of FreisingLocation

Historic Weather in Freising — Graph

°F

Freising temperature yesterday

Maximum temperature yesterday: 59 °F (at 4:00 PM)
Minimum temperature yesterday: 47 °F (at 6:00 AM)
Average temperature yesterday: 53 °F

Past Weeks' High & Low Weather Summary

 TemperatureHumidityPressure
High80 °F (May 12, 4:00 PM)100% (May 16, 2:00 AM)30.39 "Hg (May 16, 2:00 AM)
Low42 °F (May 11, 5:00 AM)31% (May 12, 5:00 PM)29.69 "Hg (May 18, 8:00 PM)
Average56 °F77%30.08 "Hg
* Reported May 10 4:00 AM — May 25 4:00 AM, Freising, Weather by CustomWeather, © 2015

Note: Actual official high and low records may vary slightly from our data, if they occured in-between our weather recording intervals... More about our weather records

Advertising

Freising weather history for previous 24 hours

 ConditionsComfort  
Time TempWeatherWind HumidityBarometerVisibility
4:00 AM
Mon, May 25
51 °FOvercast.1 mph98%30.05 "Hg7 mi
3:00 AM51 °FOvercast.No wind98%30.05 "Hg7 mi
2:00 AM51 °FOvercast.No wind98%30.06 "Hg9 mi
1:00 AM52 °FOvercast.No wind97%30.06 "Hg12 mi
12:00 AM52 °FOvercast.1 mph95%30.08 "Hg16 mi
11:00 PM
Sun, May 24
55 °FOvercast.1 mph79%30.07 "Hg16 mi
10:00 PM53 °FOvercast.1 mph94%30.08 "Hg16 mi
9:00 PM54 °FOvercast.N/A88%30.07 "Hg19 mi
8:00 PM55 °FOvercast.2 mph87%30.07 "Hg19 mi
7:00 PM55 °FOvercast.2 mph87%30.07 "Hg19 mi
6:00 PM57 °FSprinkles. Overcast.N/A81%30.07 "Hg17 mi
5:00 PM58 °FOvercast.2 mph72%30.07 "Hg19 mi
4:00 PM59 °FOvercast.2 mph66%30.07 "Hg19 mi
3:00 PM58 °FOvercast.2 mph68%30.09 "Hg19 mi
2:00 PM58 °FOvercast.2 mph72%30.09 "Hg19 mi
1:00 PM57 °FOvercast.2 mph74%30.10 "Hg17 mi
12:00 PM56 °FOvercast.2 mph78%30.11 "Hg19 mi
11:00 AM53 °FLow clouds.2 mph87%30.12 "Hg16 mi
10:00 AM51 °FLight rain. Overcast.2 mph90%30.12 "Hg12 mi
9:00 AM50 °FLight rain. Low clouds.1 mph91%30.11 "Hg12 mi
8:00 AM49 °FLight rain. Low clouds.3 mph94%30.11 "Hg7 mi
7:00 AM48 °FLight rain. Low clouds.2 mph95%30.11 "Hg6 mi
6:00 AM47 °FLight rain. Low clouds.3 mph97%30.10 "Hg5 mi
Weather by CustomWeather, © 2015

See weather overviewHow to use our weather pages